Flag for United Kingdom Weather past 2 weeks in Lerwick (Shetland Islands), Scotland, United Kingdom

Now
51 °F

Low clouds.


Feels Like: 44 °F
Forecast: 42 / 52 °F
Wind: 28 mph from South

Location: Lerwick

Current Time: Oct 21, 2014 at 5:52:34 AM

Latest Report: Oct 21, 2014 at 5:00 AM


Visibility: 6 mi

Pressure: 29.00 "Hg

Humidity: 96%

Dew point: 50 °F

Location of Lerwick (Shetland Islands)Location

Historic Weather in Lerwick (Shetland Islands) — Graph

°F

Lerwick (Shetland Islands) temperature yesterday

Maximum temperature yesterday: 52 °F (at 2:00 AM)
Minimum temperature yesterday: 48 °F (at 9:00 AM)
Average temperature yesterday: 50 °F

Past Weeks' High & Low Weather Summary

 TemperatureHumidityPressure
High57 °F (Oct 18, 2:00 PM)100% (Oct 10, 1:00 PM)30.01 "Hg (Oct 10, 1:00 PM)
Low41 °F (Oct 14, 5:00 AM)63% (Oct 13, 1:00 PM)29.06 "Hg (Oct 21, 4:00 AM)
Average50 °F87%29.60 "Hg
* Reported Oct 6 4:00 AM — Oct 21 4:00 AM, Lerwick (Shetland Islands), Weather by CustomWeather, © 2014

Note: Actual official high and low records may vary slightly from our data, if they occured in-between our weather recording intervals... More about our weather records

Advertising

Lerwick (Shetland Islands) weather history for previous 24 hours

 ConditionsComfort  
Time TempWeatherWind HumidityBarometerVisibility
4:00 AM
Oct 21
51 °FLow clouds.24 mph96%29.06 "Hg6 mi
3:00 AM51 °FDrizzle. Overcast.21 mph97%29.12 "Hg4 mi
2:00 AM51 °FLight rain. Low clouds.23 mph96%29.18 "Hg6 mi
1:00 AM51 °FLight rain. Overcast.21 mph95%29.23 "Hg7 mi
12:00 AM51 °FLight rain. Overcast.25 mph94%29.26 "Hg6 mi
11:00 PM
Oct 20
51 °FOvercast.21 mph92%29.29 "Hg9 mi
10:00 PM51 °FOvercast.21 mph94%29.32 "Hg7 mi
9:00 PM51 °FOvercast.21 mph90%29.35 "Hg9 mi
8:00 PM51 °FOvercast.22 mph89%29.38 "Hg9 mi
7:00 PM50 °FLow clouds.16 mph87%29.41 "Hg12 mi
6:00 PM49 °FLow clouds.24 mph90%29.44 "Hg14 mi
5:00 PM50 °FOvercast.21 mph93%29.44 "Hg9 mi
4:00 PM49 °FOvercast.21 mph92%29.47 "Hg9 mi
3:00 PM50 °FOvercast.18 mph82%29.47 "Hg12 mi
2:00 PM50 °FOvercast.15 mph84%29.50 "Hg14 mi
1:00 PM48 °FPartly sunny.15 mph89%29.50 "Hg12 mi
12:00 PM51 °FPartly sunny.14 mph71%29.50 "Hg11 mi
11:00 AM49 °FPartly sunny.15 mph73%29.50 "Hg16 mi
10:00 AM49 °FPartly sunny.17 mph73%29.50 "Hg12 mi
9:00 AM48 °FScattered clouds.16 mph79%29.47 "Hg11 mi
8:00 AM49 °FPartly sunny.22 mph78%29.47 "Hg7 mi
7:00 AM48 °FOvercast.21 mph86%29.44 "Hg9 mi
6:00 AM49 °FLow clouds.29 mph94%29.41 "Hg7 mi
Weather by CustomWeather, © 2014

See weather overviewHow to use our weather pages